TimeCST,TemperatureF,Dew PointF,Humidity,Sea Level PressureIn,VisibilityMPH,Wind Direction,Wind SpeedMPH,Gust SpeedMPH,PrecipitationIn,Events,Conditions,WindDirDegrees,DateUTC
12:38 AM,69.8,66.2,88,30.01,10.0,North,-9999.0,-,N/A,,Overcast,0,2013-01-28 06:38:00
12:53 AM,70.0,66.0,87,29.99,10.0,North,-9999.0,-,N/A,,Overcast,0,2013-01-28 06:53:00
1:53 AM,70.0,66.0,87,29.99,10.0,North,-9999.0,-,N/A,,Overcast,0,2013-01-28 07:53:00
2:53 AM,70.0,66.0,87,29.99,9.0,North,-9999.0,-,N/A,,Overcast,0,2013-01-28 08:53:00
3:23 AM,69.8,66.2,88,30.01,9.0,North,-9999.0,-,N/A,,Overcast,0,2013-01-28 09:23:00
3:53 AM,70.0,66.0,87,29.99,9.0,North,-9999.0,-,N/A,,Overcast,0,2013-01-28 09:53:00
4:53 AM,69.1,66.0,90,29.99,9.0,North,-9999.0,-,N/A,,Overcast,0,2013-01-28 10:53:00
5:30 AM,69.8,66.2,88,30.01,8.0,North,-9999.0,-,N/A,,Overcast,0,2013-01-28 11:30:00
5:53 AM,69.1,66.0,90,29.99,8.0,North,-9999.0,-,N/A,,Overcast,0,2013-01-28 11:53:00
6:00 AM,69.8,66.2,88,30.01,8.0,North,-9999.0,-,N/A,,Overcast,0,2013-01-28 12:00:00
6:53 AM,69.1,66.9,93,30.00,8.0,SSE,5.8,-,N/A,,Overcast,150,2013-01-28 12:53:00
7:53 AM,69.1,66.9,93,30.01,5.0,SE,6.9,-,N/A,,Overcast,140,2013-01-28 13:53:00
8:02 AM,69.8,66.2,88,30.04,5.0,SE,9.2,-,N/A,,Overcast,140,2013-01-28 14:02:00
8:53 AM,70.0,66.9,90,30.02,5.0,SSE,10.4,17.3,N/A,,Overcast,150,2013-01-28 14:53:00
9:53 AM,71.1,66.9,87,30.03,6.0,SSE,9.2,-,N/A,,Overcast,150,2013-01-28 15:53:00
10:33 AM,71.6,66.2,83,30.05,7.0,SSE,16.1,23.0,N/A,,Overcast,160,2013-01-28 16:33:00
10:53 AM,73.0,66.9,81,30.02,8.0,SSE,16.1,21.9,N/A,,Overcast,160,2013-01-28 16:53:00
11:53 AM,73.9,66.0,76,30.00,9.0,SSE,18.4,23.0,N/A,,Overcast,160,2013-01-28 17:53:00
12:13 PM,73.4,66.2,78,30.01,10.0,SSE,18.4,25.3,N/A,,Overcast,160,2013-01-28 18:13:00
12:51 PM,73.4,66.2,78,29.98,10.0,SSE,12.7,20.7,N/A,,Overcast,150,2013-01-28 18:51:00
12:53 PM,73.9,66.0,76,29.96,10.0,SSE,15.0,21.9,N/A,,Overcast,150,2013-01-28 18:53:00
1:08 PM,75.2,66.2,73,29.97,10.0,SSE,17.3,26.5,0.00,Rain,Light Rain,150,2013-01-28 19:08:00
1:53 PM,73.9,64.9,73,29.92,10.0,SSE,17.3,25.3,0.00,,Overcast,150,2013-01-28 19:53:00
2:08 PM,75.2,64.4,69,29.93,10.0,SSE,17.3,26.5,N/A,,Overcast,160,2013-01-28 20:08:00
2:53 PM,75.9,64.0,67,29.89,10.0,SSE,15.0,23.0,N/A,,Overcast,160,2013-01-28 20:53:00
3:53 PM,75.0,66.0,73,29.88,10.0,SSE,16.1,-,N/A,,Overcast,150,2013-01-28 21:53:00
4:20 PM,73.4,66.2,78,29.89,10.0,SE,13.8,20.7,N/A,,Overcast,140,2013-01-28 22:20:00
4:31 PM,73.4,66.2,78,29.89,10.0,SE,12.7,19.6,N/A,,Overcast,130,2013-01-28 22:31:00
4:53 PM,73.9,66.0,76,29.86,10.0,SE,16.1,-,N/A,,Overcast,140,2013-01-28 22:53:00
5:08 PM,73.4,66.2,78,29.88,10.0,SE,12.7,20.7,N/A,,Overcast,130,2013-01-28 23:08:00
5:53 PM,73.0,66.0,79,29.87,10.0,SE,11.5,20.7,N/A,,Overcast,140,2013-01-28 23:53:00
6:17 PM,73.4,66.2,78,29.88,10.0,SE,13.8,21.9,N/A,,Overcast,140,2013-01-29 00:17:00
6:25 PM,73.4,66.2,78,29.89,10.0,SE,15.0,20.7,N/A,,Overcast,140,2013-01-29 00:25:00
6:53 PM,73.0,66.0,79,29.87,10.0,SE,8.1,-,N/A,,Overcast,140,2013-01-29 00:53:00
7:53 PM,72.0,66.9,84,29.88,10.0,SE,15.0,-,N/A,,Overcast,130,2013-01-29 01:53:00
8:53 PM,71.1,66.9,87,29.88,9.0,SE,11.5,-,N/A,,Overcast,140,2013-01-29 02:53:00
9:14 PM,71.6,66.2,83,29.91,9.0,SSE,10.4,-,N/A,,Overcast,150,2013-01-29 03:14:00
9:53 PM,71.1,66.9,87,29.88,9.0,SSE,13.8,21.9,N/A,,Overcast,150,2013-01-29 03:53:00
10:00 PM,71.6,68.0,88,29.90,9.0,SSE,13.8,21.9,N/A,,Overcast,150,2013-01-29 04:00:00
10:11 PM,71.6,68.0,88,29.90,9.0,SSE,15.0,21.9,N/A,,Overcast,150,2013-01-29 04:11:00
10:53 PM,71.1,68.0,90,29.88,9.0,SSE,15.0,20.7,N/A,,Overcast,150,2013-01-29 04:53:00
11:18 PM,71.6,66.2,83,29.89,9.0,SE,17.3,23.0,N/A,,Overcast,140,2013-01-29 05:18:00
11:38 PM,71.6,66.2,83,29.88,9.0,SE,16.1,25.3,N/A,,Overcast,140,2013-01-29 05:38:00
11:45 PM,71.6,66.2,83,29.87,9.0,SSE,12.7,23.0,N/A,,Overcast,150,2013-01-29 05:45:00
11:53 PM,71.1,66.9,87,29.85,9.0,SE,16.1,20.7,N/A,,Overcast,140,2013-01-29 05:53:00